| time (UTC) | temp F | wind direction | speed MPH | gust MPH | rain 1hr in | rain 24hr in | rain mn in | humidity % | barometer mb |
| 20260510154541 | 57 | 175 | 9.0 | 12.0 | 0.00 | 0.00 | 0.00 | 53 | 1017.1 |
| 20260510153042 | 56 | 200 | 9.0 | 12.0 | 0.00 | 0.00 | 0.00 | 56 | 1017.3 |
| 20260510151541 | 54 | 185 | 8.0 | 14.0 | 0.00 | 0.00 | 0.00 | 60 | 1017.2 |
| 20260510150048 | 53 | 183 | 9.0 | 13.0 | 0.00 | 0.00 | 0.00 | 63 | 1017.5 |
| 20260510144543 | 51 | 203 | 5.0 | 10.0 | 0.00 | 0.00 | 0.00 | 68 | 1017.5 |
| 20260510143042 | 49 | 216 | 6.0 | 9.0 | 0.00 | 0.00 | 0.00 | 72 | 1017.5 |
| 20260510141537 | 47 | 216 | 5.0 | 9.0 | 0.00 | 0.00 | 0.00 | 74 | 1017.5 |
| 20260510140038 | 46 | 225 | 5.0 | 8.0 | 0.00 | 0.00 | 0.00 | 78 | 1017.4 |
| 20260510134535 | 44 | 241 | 2.0 | 5.0 | 0.00 | 0.00 | 0.00 | 80 | 1017.5 |
| 20260510133037 | 42 | 231 | 2.0 | 5.0 | 0.00 | 0.00 | 0.00 | 82 | 1017.5 |
| 20260510131542 | 41 | 208 | 2.0 | 4.0 | 0.00 | 0.00 | 0.00 | 83 | 1017.6 |
| 20260510130037 | 40 | 165 | 1.0 | 2.0 | 0.00 | 0.00 | 0.00 | 84 | 1017.7 |
| 20260510124535 | 39 | 89 | 0.0 | 2.0 | 0.00 | 0.00 | 0.00 | 83 | 1017.6 |
| 20260510123038 | 39 | 0 | 0.0 | 0.0 | 0.00 | 0.00 | 0.00 | 81 | 1017.8 |
| 20260510121537 | 39 | 0 | 0.0 | 0.0 | 0.00 | 0.00 | 0.00 | 81 | 1017.8 |
| 20260510120037 | 39 | 0 | 0.0 | 0.0 | 0.00 | 0.00 | 0.00 | 83 | 1017.8 |
| 20260510114536 | 39 | 0 | 0.0 | 0.0 | 0.00 | 0.00 | 0.00 | 84 | 1017.8 |
| 20260510113041 | 39 | 0 | 0.0 | 1.0 | 0.00 | 0.00 | 0.00 | 83 | 1018.0 |
| 20260510111538 | 39 | 0 | 0.0 | 0.0 | 0.00 | 0.00 | 0.00 | 83 | 1018.1 |
| 20260510110048 | 39 | 0 | 0.0 | 1.0 | 0.00 | 0.00 | 0.00 | 84 | 1018.0 |
| 20260510104537 | 39 | 0 | 0.0 | 2.0 | 0.00 | 0.00 | 0.00 | 84 | 1018.2 |
| 20260510103042 | 39 | 0 | 0.0 | 2.0 | 0.00 | 0.00 | 0.00 | 85 | 1018.2 |
| 20260510101538 | 39 | 73 | 0.0 | 1.0 | 0.00 | 0.00 | 0.00 | 84 | 1018.2 |
| 20260510100049 | 39 | 73 | 1.0 | 4.0 | 0.00 | 0.00 | 0.00 | 82 | 1018.3 |
| 20260510094544 | 39 | 73 | 2.0 | 4.0 | 0.00 | 0.00 | 0.00 | 81 | 1018.2 |
| 20260510093040 | 40 | 73 | 3.0 | 4.0 | 0.00 | 0.00 | 0.00 | 80 | 1018.3 |
| 20260510091537 | 41 | 73 | 1.0 | 4.0 | 0.00 | 0.00 | 0.00 | 78 | 1018.3 |
| 20260510090040 | 41 | 73 | 3.0 | 4.0 | 0.00 | 0.00 | 0.00 | 79 | 1018.4 |
| 20260510084537 | 42 | 73 | 3.0 | 4.0 | 0.00 | 0.00 | 0.00 | 81 | 1018.6 |
| 20260510083039 | 42 | 73 | 2.0 | 3.0 | 0.00 | 0.00 | 0.00 | 80 | 1018.7 |
| 20260510081542 | 42 | 73 | 2.0 | 3.0 | 0.00 | 0.00 | 0.00 | 78 | 1018.7 |
| 20260510080053 | 43 | 73 | 2.0 | 4.0 | 0.00 | 0.00 | 0.00 | 75 | 1018.7 |
| 20260510074539 | 45 | 60 | 3.0 | 5.0 | 0.00 | 0.00 | 0.00 | 75 | 1018.7 |
| 20260510073044 | 46 | 121 | 2.0 | 8.0 | 0.00 | 0.00 | 0.00 | 75 | 1018.9 |
| 20260510071537 | 44 | 62 | 4.0 | 5.0 | 0.00 | 0.00 | 0.00 | 77 | 1018.8 |
| 20260510070048 | 44 | 74 | 1.0 | 4.0 | 0.00 | 0.00 | 0.00 | 75 | 1018.9 |
| 20260510064542 | 44 | 63 | 1.0 | 4.0 | 0.00 | 0.00 | 0.00 | 73 | 1018.9 |
| 20260510063038 | 45 | 63 | 2.0 | 4.0 | 0.00 | 0.00 | 0.00 | 72 | 1018.9 |
| 20260510061537 | 46 | 69 | 2.0 | 5.0 | 0.00 | 0.00 | 0.00 | 68 | 1018.9 |
| 20260510060044 | 49 | 50 | 2.0 | 5.0 | 0.00 | 0.00 | 0.00 | 64 | 1019.0 |
| 20260510054536 | 52 | 0 | 0.0 | 0.0 | 0.00 | 0.00 | 0.00 | 64 | 1018.8 |
| 20260510053041 | 52 | 0 | 0.0 | 3.0 | 0.00 | 0.00 | 0.00 | 61 | 1018.9 |
| 20260510051538 | 53 | 309 | 0.0 | 3.0 | 0.00 | 0.00 | 0.00 | 61 | 1018.8 |
| 20260510050038 | 53 | 0 | 0.0 | 3.0 | 0.00 | 0.00 | 0.00 | 60 | 1018.8 |
| 20260510044538 | 54 | 309 | 1.0 | 8.0 | 0.00 | 0.00 | 0.00 | 58 | 1018.8 |
| 20260510043037 | 54 | 249 | 3.0 | 13.0 | 0.00 | 0.00 | 0.00 | 61 | 1018.6 |
| 20260510041537 | 52 | 129 | 1.0 | 8.0 | 0.00 | 0.00 | 0.00 | 65 | 1018.4 |
| 20260510040039 | 51 | 58 | 4.0 | 8.0 | 0.00 | 0.00 | 0.00 | 65 | 1018.3 |
| 20260510034538 | 51 | 64 | 3.0 | 5.0 | 0.00 | 0.00 | 0.00 | 64 | 1018.3 |
| 20260510033047 | 52 | 64 | 2.0 | 7.0 | 0.00 | 0.00 | 0.00 | 61 | 1018.2 |
| 20260510031542 | 53 | 56 | 5.0 | 9.0 | 0.00 | 0.00 | 0.00 | 61 | 1018.0 |
| 20260510030037 | 54 | 87 | 1.0 | 3.0 | 0.00 | 0.00 | 0.00 | 58 | 1017.8 |
| 20260510024541 | 56 | 100 | 4.0 | 6.0 | 0.00 | 0.00 | 0.00 | 56 | 1017.4 |
| 20260510023038 | 57 | 65 | 4.0 | 7.0 | 0.00 | 0.00 | 0.00 | 53 | 1017.4 |
| 20260510021620 | 58 | 98 | 2.0 | 9.0 | 0.00 | 0.00 | 0.00 | 50 | 1017.4 |
| 20260510020037 | 59 | 95 | 3.0 | 5.0 | 0.00 | 0.00 | 0.00 | 50 | 1017.5 |
| 20260510014551 | 60 | 88 | 2.0 | 5.0 | 0.00 | 0.00 | 0.00 | 48 | 1017.4 |
| 20260510013036 | 61 | 78 | 3.0 | 6.0 | 0.00 | 0.00 | 0.00 | 44 | 1017.5 |
| 20260510011540 | 62 | 72 | 4.0 | 6.0 | 0.00 | 0.00 | 0.00 | 44 | 1017.6 |
| 20260510010048 | 62 | 96 | 2.0 | 5.0 | 0.00 | 0.00 | 0.00 | 42 | 1017.6 |
| 20260510004539 | 62 | 92 | 2.0 | 6.0 | 0.00 | 0.00 | 0.00 | 42 | 1017.6 |
| 20260510003034 | 62 | 37 | 7.0 | 10.0 | 0.00 | 0.00 | 0.00 | 45 | 1017.7 |
| 20260510001537 | 62 | 22 | 3.0 | 5.0 | 0.00 | 0.00 | 0.00 | 44 | 1017.6 |
| 20260510000037 | 62 | 360 | 2.0 | 8.0 | 0.00 | 0.00 | 0.00 | 41 | 1017.7 |
| 20260509234536 | 63 | 333 | 3.0 | 4.0 | 0.00 | 0.00 | 0.00 | 38 | 1017.5 |
| 20260509233038 | 63 | 200 | 0.0 | 5.0 | 0.00 | 0.00 | 0.00 | 37 | 1017.5 |
| 20260509231537 | 63 | 0 | 0.0 | 4.0 | 0.00 | 0.00 | 0.00 | 37 | 1017.5 |
| 20260509230041 | 63 | 216 | 2.0 | 5.0 | 0.00 | 0.00 | 0.00 | 37 | 1017.7 |
| 20260509224534 | 63 | 175 | 1.0 | 8.0 | 0.00 | 0.00 | 0.00 | 37 | 1017.6 |
| 20260509223039 | 63 | 123 | 4.0 | 9.0 | 0.00 | 0.00 | 0.00 | 37 | 1017.7 |
| 20260509221540 | 63 | 166 | 6.0 | 9.0 | 0.00 | 0.00 | 0.00 | 37 | 1017.8 |
| 20260509220040 | 62 | 202 | 2.0 | 8.0 | 0.00 | 0.00 | 0.00 | 38 | 1017.9 |
| 20260509214542 | 62 | 220 | 4.0 | 8.0 | 0.00 | 0.00 | 0.00 | 38 | 1018.0 |
| 20260509213038 | 62 | 200 | 6.0 | 12.0 | 0.00 | 0.00 | 0.00 | 38 | 1018.0 |
| 20260509211538 | 61 | 294 | 2.0 | 8.0 | 0.00 | 0.00 | 0.00 | 38 | 1018.1 |
| 20260509210044 | 62 | 354 | 5.0 | 16.0 | 0.00 | 0.00 | 0.00 | 38 | 1018.2 |
| 20260509204538 | 62 | 277 | 2.0 | 8.0 | 0.00 | 0.00 | 0.00 | 37 | 1018.2 |
| 20260509203037 | 62 | 289 | 3.0 | 10.0 | 0.00 | 0.00 | 0.00 | 36 | 1018.2 |
| 20260509201540 | 62 | 274 | 3.0 | 9.0 | 0.00 | 0.00 | 0.00 | 36 | 1017.9 |
| 20260509200040 | 62 | 252 | 6.0 | 13.0 | 0.00 | 0.00 | 0.00 | 36 | 1017.9 |
| 20260509194551 | 62 | 0 | 1.0 | 5.0 | 0.00 | 0.00 | 0.00 | 35 | 1017.9 |
| 20260509193036 | 62 | 272 | 7.0 | 11.0 | 0.00 | 0.00 | 0.00 | 35 | 1017.9 |
| 20260509191537 | 62 | 283 | 8.0 | 12.0 | 0.00 | 0.00 | 0.00 | 35 | 1017.9 |
| 20260509190040 | 61 | 139 | 1.0 | 10.0 | 0.00 | 0.00 | 0.00 | 35 | 1018.1 |
| 20260509184536 | 61 | 270 | 2.0 | 7.0 | 0.00 | 0.00 | 0.00 | 36 | 1018.2 |
| 20260509183040 | 61 | 111 | 3.0 | 9.0 | 0.00 | 0.00 | 0.00 | 36 | 1018.2 |
| 20260509181542 | 61 | 214 | 4.0 | 9.0 | 0.00 | 0.00 | 0.00 | 36 | 1018.0 |
| 20260509180052 | 62 | 214 | 4.0 | 9.0 | 0.00 | 0.00 | 0.00 | 35 | 1018.0 |
| 20260509174540 | 61 | 60 | 2.0 | 8.0 | 0.00 | 0.00 | 0.00 | 37 | 1017.9 |
| 20260509173052 | 60 | 199 | 6.0 | 12.0 | 0.00 | 0.00 | 0.00 | 36 | 1017.8 |
| 20260509171541 | 60 | 215 | 5.0 | 9.0 | 0.00 | 0.00 | 0.00 | 38 | 1017.6 |
| 20260509170037 | 59 | 191 | 4.0 | 7.0 | 0.00 | 0.00 | 0.00 | 38 | 1017.7 |
| 20260509164541 | 59 | 224 | 3.0 | 6.0 | 0.00 | 0.00 | 0.00 | 37 | 1017.6 |
| 20260509163036 | 60 | 202 | 4.0 | 10.0 | 0.00 | 0.00 | 0.00 | 37 | 1017.5 |
| 20260509161552 | 60 | 359 | 0.0 | 5.0 | 0.00 | 0.00 | 0.00 | 38 | 1017.4 |
| 20260509160039 | 59 | 347 | 3.0 | 7.0 | 0.00 | 0.00 | 0.00 | 39 | 1017.2 |